Year,Month,Day,Hour,Minute,Value (Times are PST for insolation in W/m^2)
2015,04,26,00,00,0.00
2015,04,26,00,01,0.00
2015,04,26,00,02,0.00
2015,04,26,00,03,0.00
2015,04,26,00,04,0.00
2015,04,26,00,05,0.00
2015,04,26,00,06,0.00
2015,04,26,00,07,0.00
2015,04,26,00,08,0.00
2015,04,26,00,09,0.00
2015,04,26,00,10,0.00
2015,04,26,00,11,0.00
2015,04,26,00,12,0.00
2015,04,26,00,13,0.00
2015,04,26,00,14,0.00
2015,04,26,00,15,0.00
2015,04,26,00,16,0.00
2015,04,26,00,17,0.00
2015,04,26,00,18,0.00
2015,04,26,00,19,0.00
2015,04,26,00,20,0.00
2015,04,26,00,21,0.00
2015,04,26,00,22,0.00
2015,04,26,00,23,0.00
2015,04,26,00,24,0.00
2015,04,26,00,25,0.00
2015,04,26,00,26,0.00
2015,04,26,00,27,0.00
2015,04,26,00,28,0.00
2015,04,26,00,29,0.00
2015,04,26,00,30,0.00
2015,04,26,00,31,0.00
2015,04,26,00,32,0.00
2015,04,26,00,33,0.00
2015,04,26,00,34,0.00
2015,04,26,00,35,0.00
2015,04,26,00,36,0.00
2015,04,26,00,37,0.00
2015,04,26,00,38,0.00
2015,04,26,00,39,0.00
2015,04,26,00,40,0.00
2015,04,26,00,41,0.00
2015,04,26,00,42,0.00
2015,04,26,00,43,0.00
2015,04,26,00,44,0.00
2015,04,26,00,45,0.00
2015,04,26,00,46,0.00
2015,04,26,00,47,0.00
2015,04,26,00,48,0.00
2015,04,26,00,49,0.00
2015,04,26,00,50,0.00
2015,04,26,00,51,0.00
2015,04,26,00,52,0.00
2015,04,26,00,53,0.00
2015,04,26,00,54,0.00
2015,04,26,00,55,0.00
2015,04,26,00,56,0.00
2015,04,26,00,57,0.00
2015,04,26,00,58,0.00
2015,04,26,00,59,0.00
2015,04,26,01,00,0.00
2015,04,26,01,01,0.00
2015,04,26,01,02,0.00
2015,04,26,01,03,0.00
2015,04,26,01,04,0.00
2015,04,26,01,05,0.00
2015,04,26,01,06,0.00
2015,04,26,01,07,0.00
2015,04,26,01,08,0.00
2015,04,26,01,09,0.00
2015,04,26,01,10,0.00
2015,04,26,01,11,0.00
2015,04,26,01,12,0.00
2015,04,26,01,13,0.00
2015,04,26,01,14,0.00
2015,04,26,01,15,0.00
2015,04,26,01,16,0.00
2015,04,26,01,17,0.00
2015,04,26,01,18,0.00
2015,04,26,01,19,0.00
2015,04,26,01,20,0.00
2015,04,26,01,21,0.00
2015,04,26,01,22,0.00
2015,04,26,01,23,0.00
2015,04,26,01,24,0.00
2015,04,26,01,25,0.00
2015,04,26,01,26,0.00
2015,04,26,01,27,0.00
2015,04,26,01,28,0.00
2015,04,26,01,29,0.00
2015,04,26,01,30,0.00
2015,04,26,01,31,0.00
2015,04,26,01,32,0.00
2015,04,26,01,33,0.00
2015,04,26,01,34,0.00
2015,04,26,01,35,0.00
2015,04,26,01,36,0.00
2015,04,26,01,37,0.00
2015,04,26,01,38,0.00
2015,04,26,01,39,0.00
2015,04,26,01,40,0.00
2015,04,26,01,41,0.00
2015,04,26,01,42,0.00
2015,04,26,01,43,0.00
2015,04,26,01,44,0.00
2015,04,26,01,45,0.00
2015,04,26,01,46,0.00
2015,04,26,01,47,0.00
2015,04,26,01,48,0.00
2015,04,26,01,49,0.00
2015,04,26,01,50,0.00
2015,04,26,01,51,0.00
2015,04,26,01,52,0.00
2015,04,26,01,53,0.00
2015,04,26,01,54,0.00
2015,04,26,01,55,0.00
2015,04,26,01,56,0.00
2015,04,26,01,57,0.00
2015,04,26,01,58,0.00
2015,04,26,01,59,0.00
2015,04,26,02,00,0.00
2015,04,26,02,01,0.00
2015,04,26,02,02,0.00
2015,04,26,02,03,0.00
2015,04,26,02,04,0.00
2015,04,26,02,05,0.00
2015,04,26,02,06,0.00
2015,04,26,02,07,0.00
2015,04,26,02,08,0.00
2015,04,26,02,09,0.00
2015,04,26,02,10,0.00
2015,04,26,02,11,0.00
2015,04,26,02,12,0.00
2015,04,26,02,13,0.00
2015,04,26,02,14,0.00
2015,04,26,02,15,0.00
2015,04,26,02,16,0.00
2015,04,26,02,17,0.00
2015,04,26,02,18,0.00
2015,04,26,02,19,0.00
2015,04,26,02,20,0.00
2015,04,26,02,21,0.00
2015,04,26,02,22,0.00
2015,04,26,02,23,0.00
2015,04,26,02,24,0.00
2015,04,26,02,25,0.00
2015,04,26,02,26,0.00
2015,04,26,02,27,0.00
2015,04,26,02,28,0.00
2015,04,26,02,29,0.00
2015,04,26,02,30,0.00
2015,04,26,02,31,0.00
2015,04,26,02,32,0.00
2015,04,26,02,33,0.00
2015,04,26,02,34,0.00
2015,04,26,02,35,0.00
2015,04,26,02,36,0.00
2015,04,26,02,37,0.00
2015,04,26,02,38,0.00
2015,04,26,02,39,0.00
2015,04,26,02,40,0.00
2015,04,26,02,41,0.00
2015,04,26,02,42,0.00
2015,04,26,02,43,0.00
2015,04,26,02,44,0.00
2015,04,26,02,45,0.00
2015,04,26,02,46,0.00
2015,04,26,02,47,0.00
2015,04,26,02,48,0.00
2015,04,26,02,49,0.00
2015,04,26,02,50,0.00
2015,04,26,02,51,0.00
2015,04,26,02,52,0.00
2015,04,26,02,53,0.00
2015,04,26,02,54,0.00
2015,04,26,02,55,0.00
2015,04,26,02,56,0.00
2015,04,26,02,57,0.00
2015,04,26,02,58,0.00
2015,04,26,02,59,0.00
2015,04,26,03,00,0.00
2015,04,26,03,01,0.00
2015,04,26,03,02,0.00
2015,04,26,03,03,0.00
2015,04,26,03,04,0.00
2015,04,26,03,05,0.00
2015,04,26,03,06,0.00
2015,04,26,03,07,0.00
2015,04,26,03,08,0.00
2015,04,26,03,09,0.00
2015,04,26,03,10,0.00
2015,04,26,03,11,0.00
2015,04,26,03,12,0.00
2015,04,26,03,13,0.00
2015,04,26,03,14,0.00
2015,04,26,03,15,0.00
2015,04,26,03,16,0.00
2015,04,26,03,17,0.00
2015,04,26,03,18,0.00
2015,04,26,03,19,0.00
2015,04,26,03,20,0.00
2015,04,26,03,21,0.00
2015,04,26,03,22,0.00
2015,04,26,03,23,0.00
2015,04,26,03,24,0.00
2015,04,26,03,25,0.00
2015,04,26,03,26,0.00
2015,04,26,03,27,0.00
2015,04,26,03,28,0.00
2015,04,26,03,29,0.00
2015,04,26,03,30,0.00
2015,04,26,03,31,0.00
2015,04,26,03,32,0.00
2015,04,26,03,33,0.00
2015,04,26,03,34,0.00
2015,04,26,03,35,0.00
2015,04,26,03,36,0.00
2015,04,26,03,37,0.00
2015,04,26,03,38,0.00
2015,04,26,03,39,0.00
2015,04,26,03,40,0.00
2015,04,26,03,41,0.00
2015,04,26,03,42,0.00
2015,04,26,03,43,0.00
2015,04,26,03,44,0.00
2015,04,26,03,45,0.00
2015,04,26,03,46,0.00
2015,04,26,03,47,0.00
2015,04,26,03,48,0.00
2015,04,26,03,49,0.00
2015,04,26,03,50,0.00
2015,04,26,03,51,0.00
2015,04,26,03,52,0.00
2015,04,26,03,53,0.00
2015,04,26,03,54,0.00
2015,04,26,03,55,0.00
2015,04,26,03,56,0.00
2015,04,26,03,57,0.00
2015,04,26,03,58,0.00
2015,04,26,03,59,0.00
2015,04,26,04,00,0.00
2015,04,26,04,01,0.00
2015,04,26,04,02,0.00
2015,04,26,04,03,0.00
2015,04,26,04,04,0.00
2015,04,26,04,05,0.00
2015,04,26,04,06,0.00
2015,04,26,04,07,0.00
2015,04,26,04,08,0.00
2015,04,26,04,09,0.00
2015,04,26,04,10,0.00
2015,04,26,04,11,0.00
2015,04,26,04,12,0.00
2015,04,26,04,13,0.00
2015,04,26,04,14,0.00
2015,04,26,04,15,0.00
2015,04,26,04,16,0.00
2015,04,26,04,17,0.00
2015,04,26,04,18,0.00
2015,04,26,04,19,0.00
2015,04,26,04,20,0.00
2015,04,26,04,21,0.00
2015,04,26,04,22,0.00
2015,04,26,04,23,0.00
2015,04,26,04,24,0.00
2015,04,26,04,25,0.00
2015,04,26,04,26,0.00
2015,04,26,04,27,0.00
2015,04,26,04,28,0.00
2015,04,26,04,29,0.00
2015,04,26,04,30,0.00
2015,04,26,04,31,0.00
2015,04,26,04,32,0.00
2015,04,26,04,33,0.00
2015,04,26,04,34,0.00
2015,04,26,04,35,0.00
2015,04,26,04,36,0.00
2015,04,26,04,37,0.00
2015,04,26,04,38,0.00
2015,04,26,04,39,0.00
2015,04,26,04,40,0.00
2015,04,26,04,41,0.00
2015,04,26,04,42,0.00
2015,04,26,04,43,0.00
2015,04,26,04,44,0.00
2015,04,26,04,45,0.00
2015,04,26,04,46,0.00
2015,04,26,04,47,0.00
2015,04,26,04,48,0.00
2015,04,26,04,49,0.00
2015,04,26,04,50,0.00
2015,04,26,04,51,0.00
2015,04,26,04,52,0.00
2015,04,26,04,53,0.00
2015,04,26,04,54,0.00
2015,04,26,04,55,0.00
2015,04,26,04,56,0.00
2015,04,26,04,57,0.00
2015,04,26,04,58,0.00
2015,04,26,04,59,0.00
2015,04,26,05,00,0.00
2015,04,26,05,01,0.00
2015,04,26,05,02,0.00
2015,04,26,05,03,0.00
2015,04,26,05,04,0.00
2015,04,26,05,05,0.00
2015,04,26,05,06,0.00
2015,04,26,05,07,0.00
2015,04,26,05,08,0.00
2015,04,26,05,09,0.00
2015,04,26,05,10,0.00
2015,04,26,05,11,0.00
2015,04,26,05,12,0.00
2015,04,26,05,13,0.00
2015,04,26,05,14,0.00
2015,04,26,05,15,0.00
2015,04,26,05,16,0.00
2015,04,26,05,17,0.00
2015,04,26,05,18,0.00
2015,04,26,05,19,0.00
2015,04,26,05,20,0.00
2015,04,26,05,21,0.00
2015,04,26,05,22,0.00
2015,04,26,05,23,0.00
2015,04,26,05,24,0.00
2015,04,26,05,25,0.00
2015,04,26,05,26,0.00
2015,04,26,05,27,0.00
2015,04,26,05,28,0.00
2015,04,26,05,29,0.00
2015,04,26,05,30,0.00
2015,04,26,05,31,0.00
2015,04,26,05,32,0.00
2015,04,26,05,33,0.00
2015,04,26,05,34,0.00
2015,04,26,05,35,0.00
2015,04,26,05,36,0.00
2015,04,26,05,37,0.00
2015,04,26,05,38,0.00
2015,04,26,05,39,0.00
2015,04,26,05,40,0.00
2015,04,26,05,41,0.00
2015,04,26,05,42,0.00
2015,04,26,05,43,0.00
2015,04,26,05,44,0.00
2015,04,26,05,45,0.00
2015,04,26,05,46,0.00
2015,04,26,05,47,0.00
2015,04,26,05,48,0.00
2015,04,26,05,49,0.00
2015,04,26,05,50,0.00
2015,04,26,05,51,0.00
2015,04,26,05,52,0.00
2015,04,26,05,53,0.00
2015,04,26,05,54,0.00
2015,04,26,05,55,0.00
2015,04,26,05,56,0.00
2015,04,26,05,57,0.00
2015,04,26,05,58,0.00
2015,04,26,05,59,0.00
2015,04,26,06,00,0.00
2015,04,26,06,01,0.00
2015,04,26,06,02,0.00
2015,04,26,06,03,0.00
2015,04,26,06,04,0.00
2015,04,26,06,05,2.60
2015,04,26,06,06,5.00
2015,04,26,06,07,5.00
2015,04,26,06,08,5.00
2015,04,26,06,09,5.00
2015,04,26,06,10,5.00
2015,04,26,06,11,5.00
2015,04,26,06,12,5.00
2015,04,26,06,13,5.00
2015,04,26,06,14,6.20
2015,04,26,06,15,7.00
2015,04,26,06,16,7.00
2015,04,26,06,17,7.00
2015,04,26,06,18,9.00
2015,04,26,06,19,9.00
2015,04,26,06,20,9.00
2015,04,26,06,21,9.80
2015,04,26,06,22,11.00
2015,04,26,06,23,11.00
2015,04,26,06,24,11.70
2015,04,26,06,25,13.60
2015,04,26,06,26,14.00
2015,04,26,06,27,14.00
2015,04,26,06,28,13.50
2015,04,26,06,29,12.00
2015,04,26,06,30,12.90
2015,04,26,06,31,14.00
2015,04,26,06,32,12.70
2015,04,26,06,33,12.00
2015,04,26,06,34,12.00
2015,04,26,06,35,12.10
2015,04,26,06,36,14.00
2015,04,26,06,37,14.50
2015,04,26,06,38,16.00
2015,04,26,06,39,16.00
2015,04,26,06,40,16.00
2015,04,26,06,41,16.00
2015,04,26,06,42,16.00
2015,04,26,06,43,16.00
2015,04,26,06,44,16.00
2015,04,26,06,45,16.40
2015,04,26,06,46,18.00
2015,04,26,06,47,18.00
2015,04,26,06,48,18.00
2015,04,26,06,49,18.00
2015,04,26,06,50,18.80
2015,04,26,06,51,19.00
2015,04,26,06,52,21.00
2015,04,26,06,53,22.70
2015,04,26,06,54,21.00
2015,04,26,06,55,21.70
2015,04,26,06,56,23.90
2015,04,26,06,57,25.00
2015,04,26,06,58,25.70
2015,04,26,06,59,26.00
2015,04,26,07,00,27.70
2015,04,26,07,01,28.00
2015,04,26,07,02,28.00
2015,04,26,07,03,28.00
2015,04,26,07,04,27.10
2015,04,26,07,05,26.00
2015,04,26,07,06,26.00
2015,04,26,07,07,27.50
2015,04,26,07,08,28.00
2015,04,26,07,09,27.90
2015,04,26,07,10,26.00
2015,04,26,07,11,26.00
2015,04,26,07,12,26.70
2015,04,26,07,13,29.00
2015,04,26,07,14,31.00
2015,04,26,07,15,32.00
2015,04,26,07,16,32.70
2015,04,26,07,17,34.70
2015,04,26,07,18,40.00
2015,04,26,07,19,42.00
2015,04,26,07,20,42.50
2015,04,26,07,21,44.00
2015,04,26,07,22,46.10
2015,04,26,07,23,50.20
2015,04,26,07,24,51.00
2015,04,26,07,25,52.60
2015,04,26,07,26,53.90
2015,04,26,07,27,56.50
2015,04,26,07,28,60.50
2015,04,26,07,29,60.70
2015,04,26,07,30,58.00
2015,04,26,07,31,59.00
2015,04,26,07,32,60.00
2015,04,26,07,33,58.50
2015,04,26,07,34,56.30
2015,04,26,07,35,54.00
2015,04,26,07,36,53.00
2015,04,26,07,37,53.30
2015,04,26,07,38,54.70
2015,04,26,07,39,57.80
2015,04,26,07,40,62.90
2015,04,26,07,41,68.40
2015,04,26,07,42,69.20
2015,04,26,07,43,69.90
2015,04,26,07,44,72.00
2015,04,26,07,45,72.00
2015,04,26,07,46,71.50
2015,04,26,07,47,70.00
2015,04,26,07,48,71.00
2015,04,26,07,49,70.20
2015,04,26,07,50,64.80
2015,04,26,07,51,63.00
2015,04,26,07,52,62.10
2015,04,26,07,53,62.90
2015,04,26,07,54,62.20
2015,04,26,07,55,63.00
2015,04,26,07,56,63.90
2015,04,26,07,57,67.10
2015,04,26,07,58,67.70
2015,04,26,07,59,65.50
2015,04,26,08,00,65.00
2015,04,26,08,01,68.90
2015,04,26,08,02,70.60
2015,04,26,08,03,75.20
2015,04,26,08,04,84.80
2015,04,26,08,05,99.80
2015,04,26,08,06,100.90
2015,04,26,08,07,97.30
2015,04,26,08,08,97.80
2015,04,26,08,09,97.10
2015,04,26,08,10,96.60
2015,04,26,08,11,92.60
2015,04,26,08,12,92.80
2015,04,26,08,13,99.90
2015,04,26,08,14,104.00
2015,04,26,08,15,99.70
2015,04,26,08,16,94.00
2015,04,26,08,17,91.30
2015,04,26,08,18,96.60
2015,04,26,08,19,94.20
2015,04,26,08,20,88.40
2015,04,26,08,21,83.60
2015,04,26,08,22,89.30
2015,04,26,08,23,101.50
2015,04,26,08,24,106.40
2015,04,26,08,25,110.20
2015,04,26,08,26,109.20
2015,04,26,08,27,103.80
2015,04,26,08,28,103.30
2015,04,26,08,29,112.30
2015,04,26,08,30,122.90
2015,04,26,08,31,131.00
2015,04,26,08,32,136.30
2015,04,26,08,33,137.00
2015,04,26,08,34,135.40
2015,04,26,08,35,130.50
2015,04,26,08,36,128.60
2015,04,26,08,37,133.80
2015,04,26,08,38,142.60
2015,04,26,08,39,149.00
2015,04,26,08,40,150.10
2015,04,26,08,41,151.00
2015,04,26,08,42,154.00
2015,04,26,08,43,155.90
2015,04,26,08,44,158.00
2015,04,26,08,45,160.00
2015,04,26,08,46,160.50
2015,04,26,08,47,163.20
2015,04,26,08,48,165.00
2015,04,26,08,49,167.40
2015,04,26,08,50,172.50
2015,04,26,08,51,175.70
2015,04,26,08,52,175.90
2015,04,26,08,53,173.50
2015,04,26,08,54,168.50
2015,04,26,08,55,165.40
2015,04,26,08,56,159.10
2015,04,26,08,57,151.70
2015,04,26,08,58,145.80
2015,04,26,08,59,142.50
2015,04,26,09,00,149.40
2015,04,26,09,01,156.00
2015,04,26,09,02,162.00
2015,04,26,09,03,161.50
2015,04,26,09,04,157.50
2015,04,26,09,05,152.10
2015,04,26,09,06,149.40
2015,04,26,09,07,146.70
2015,04,26,09,08,151.50
2015,04,26,09,09,161.20
2015,04,26,09,10,165.20
2015,04,26,09,11,167.40
2015,04,26,09,12,169.90
2015,04,26,09,13,172.80
2015,04,26,09,14,174.00
2015,04,26,09,15,174.00
2015,04,26,09,16,174.00
2015,04,26,09,17,174.00
2015,04,26,09,18,177.70
2015,04,26,09,19,177.70
2015,04,26,09,20,176.00
2015,04,26,09,21,176.70
2015,04,26,09,22,178.50
2015,04,26,09,23,178.50
2015,04,26,09,24,176.70
2015,04,26,09,25,177.50
2015,04,26,09,26,176.30
2015,04,26,09,27,174.00
2015,04,26,09,28,171.40
2015,04,26,09,29,169.00
2015,04,26,09,30,168.20
2015,04,26,09,31,167.00
2015,04,26,09,32,168.20
2015,04,26,09,33,171.10
2015,04,26,09,34,175.10
2015,04,26,09,35,180.70
2015,04,26,09,36,185.30
2015,04,26,09,37,189.00
2015,04,26,09,38,193.60
2015,04,26,09,39,199.20
2015,04,26,09,40,206.50
2015,04,26,09,41,215.30
2015,04,26,09,42,221.60
2015,04,26,09,43,223.00
2015,04,26,09,44,222.90
2015,04,26,09,45,220.90
2015,04,26,09,46,220.70
2015,04,26,09,47,224.40
2015,04,26,09,48,227.90
2015,04,26,09,49,229.00
2015,04,26,09,50,226.30
2015,04,26,09,51,221.00
2015,04,26,09,52,218.30
2015,04,26,09,53,216.20
2015,04,26,09,54,218.40
2015,04,26,09,55,220.80
2015,04,26,09,56,226.50
2015,04,26,09,57,234.50
2015,04,26,09,58,241.20
2015,04,26,09,59,250.50
2015,04,26,10,00,262.80
2015,04,26,10,01,275.00
2015,04,26,10,02,286.00
2015,04,26,10,03,294.10
2015,04,26,10,04,303.20
2015,04,26,10,05,308.50
2015,04,26,10,06,306.30
2015,04,26,10,07,304.00
2015,04,26,10,08,304.00
2015,04,26,10,09,304.00
2015,04,26,10,10,304.00
2015,04,26,10,11,305.80
2015,04,26,10,12,325.10
2015,04,26,10,13,352.80
2015,04,26,10,14,383.00
2015,04,26,10,15,418.80
2015,04,26,10,16,440.20
2015,04,26,10,17,433.20
2015,04,26,10,18,460.70
2015,04,26,10,19,470.20
2015,04,26,10,20,487.50
2015,04,26,10,21,447.50
2015,04,26,10,22,443.40
2015,04,26,10,23,458.00
2015,04,26,10,24,476.80
2015,04,26,10,25,470.90
2015,04,26,10,26,425.20
2015,04,26,10,27,466.60
2015,04,26,10,28,474.00
2015,04,26,10,29,518.00
2015,04,26,10,30,543.30
2015,04,26,10,31,518.40
2015,04,26,10,32,493.20
2015,04,26,10,33,516.50
2015,04,26,10,34,527.00
2015,04,26,10,35,659.90
2015,04,26,10,36,691.40
2015,04,26,10,37,770.00
2015,04,26,10,38,722.30
2015,04,26,10,39,600.30
2015,04,26,10,40,596.00
2015,04,26,10,41,624.00
2015,04,26,10,42,570.40
2015,04,26,10,43,611.10
2015,04,26,10,44,555.50
2015,04,26,10,45,536.20
2015,04,26,10,46,426.50
2015,04,26,10,47,397.60
2015,04,26,10,48,384.20
2015,04,26,10,49,420.40
2015,04,26,10,50,423.80
2015,04,26,10,51,449.80
2015,04,26,10,52,519.70
2015,04,26,10,53,583.50
2015,04,26,10,54,602.60
2015,04,26,10,55,593.60
2015,04,26,10,56,651.80
2015,04,26,10,57,682.70
2015,04,26,10,58,682.10
2015,04,26,10,59,697.50
2015,04,26,11,00,682.50
2015,04,26,11,01,677.00
2015,04,26,11,02,835.00
2015,04,26,11,03,831.20
2015,04,26,11,04,817.00
2015,04,26,11,05,678.30
2015,04,26,11,06,447.50
2015,04,26,11,07,398.40
2015,04,26,11,08,371.70
2015,04,26,11,09,354.40
2015,04,26,11,10,338.10
2015,04,26,11,11,325.80
2015,04,26,11,12,310.50
2015,04,26,11,13,282.30
2015,04,26,11,14,257.60
2015,04,26,11,15,250.50
2015,04,26,11,16,252.30
2015,04,26,11,17,253.00
2015,04,26,11,18,254.70
2015,04,26,11,19,257.10
2015,04,26,11,20,258.80
2015,04,26,11,21,262.00
2015,04,26,11,22,261.30
2015,04,26,11,23,259.00
2015,04,26,11,24,259.10
2015,04,26,11,25,260.00
2015,04,26,11,26,257.60
2015,04,26,11,27,255.20
2015,04,26,11,28,255.40
2015,04,26,11,29,259.80
2015,04,26,11,30,267.80
2015,04,26,11,31,274.00
2015,04,26,11,32,272.90
2015,04,26,11,33,275.80
2015,04,26,11,34,289.80
2015,04,26,11,35,326.30
2015,04,26,11,36,349.50
2015,04,26,11,37,355.40
2015,04,26,11,38,344.40
2015,04,26,11,39,348.30
2015,04,26,11,40,363.40
2015,04,26,11,41,420.60
2015,04,26,11,42,402.00
2015,04,26,11,43,374.00
2015,04,26,11,44,391.40
2015,04,26,11,45,382.70
2015,04,26,11,46,356.00
2015,04,26,11,47,336.70
2015,04,26,11,48,347.50
2015,04,26,11,49,355.00
2015,04,26,11,50,323.90
2015,04,26,11,51,301.40
2015,04,26,11,52,285.80
2015,04,26,11,53,275.80
2015,04,26,11,54,263.10
2015,04,26,11,55,256.60
2015,04,26,11,56,263.10
2015,04,26,11,57,262.70
2015,04,26,11,58,262.80
2015,04,26,11,59,271.10
2015,04,26,12,00,267.00
2015,04,26,12,01,258.10
2015,04,26,12,02,247.10
2015,04,26,12,03,239.00
2015,04,26,12,04,243.60
2015,04,26,12,05,262.00
2015,04,26,12,06,270.60
2015,04,26,12,07,270.20
2015,04,26,12,08,275.90
2015,04,26,12,09,287.70
2015,04,26,12,10,309.10
2015,04,26,12,11,343.40
2015,04,26,12,12,369.30
2015,04,26,12,13,380.30
2015,04,26,12,14,377.50
2015,04,26,12,15,368.10
2015,04,26,12,16,364.00
2015,04,26,12,17,365.50
2015,04,26,12,18,360.90
2015,04,26,12,19,338.10
2015,04,26,12,20,293.00
2015,04,26,12,21,247.40
2015,04,26,12,22,222.60
2015,04,26,12,23,214.60
2015,04,26,12,24,213.00
2015,04,26,12,25,213.00
2015,04,26,12,26,211.50
2015,04,26,12,27,207.40
2015,04,26,12,28,207.60
2015,04,26,12,29,215.70
2015,04,26,12,30,231.50
2015,04,26,12,31,242.90
2015,04,26,12,32,251.80
2015,04,26,12,33,269.10
2015,04,26,12,34,292.40
2015,04,26,12,35,316.30
2015,04,26,12,36,338.30
2015,04,26,12,37,367.00
2015,04,26,12,38,410.20
2015,04,26,12,39,462.00
2015,04,26,12,40,511.40
2015,04,26,12,41,540.00
2015,04,26,12,42,611.70
2015,04,26,12,43,650.00
2015,04,26,12,44,828.20
2015,04,26,12,45,917.60
2015,04,26,12,46,921.00
2015,04,26,12,47,866.20
2015,04,26,12,48,691.00
2015,04,26,12,49,759.50
2015,04,26,12,50,784.60
2015,04,26,12,51,725.60
2015,04,26,12,52,714.00
2015,04,26,12,53,788.50
2015,04,26,12,54,778.00
2015,04,26,12,55,796.00
2015,04,26,12,56,796.00
2015,04,26,12,57,788.80
2015,04,26,12,58,752.60
2015,04,26,12,59,726.80
2015,04,26,13,00,743.50
2015,04,26,13,01,751.00
2015,04,26,13,02,576.20
2015,04,26,13,03,565.00
2015,04,26,13,04,560.50
2015,04,26,13,05,557.40
2015,04,26,13,06,559.30
2015,04,26,13,07,558.50
2015,04,26,13,08,554.00
2015,04,26,13,09,671.60
2015,04,26,13,10,733.60
2015,04,26,13,11,807.80
2015,04,26,13,12,813.30
2015,04,26,13,13,891.00
2015,04,26,13,14,909.50
2015,04,26,13,15,935.00
2015,04,26,13,16,879.90
2015,04,26,13,17,846.00
2015,04,26,13,18,679.60
2015,04,26,13,19,641.70
2015,04,26,13,20,618.20
2015,04,26,13,21,603.60
2015,04,26,13,22,610.50
2015,04,26,13,23,627.10
2015,04,26,13,24,668.20
2015,04,26,13,25,660.20
2015,04,26,13,26,658.50
2015,04,26,13,27,642.30
2015,04,26,13,28,642.10
2015,04,26,13,29,658.50
2015,04,26,13,30,659.00
2015,04,26,13,31,687.90
2015,04,26,13,32,723.50
2015,04,26,13,33,733.10
2015,04,26,13,34,710.10
2015,04,26,13,35,632.20
2015,04,26,13,36,612.00
2015,04,26,13,37,637.30
2015,04,26,13,38,617.40
2015,04,26,13,39,576.10
2015,04,26,13,40,601.80
2015,04,26,13,41,613.90
2015,04,26,13,42,597.20
2015,04,26,13,43,584.30
2015,04,26,13,44,558.70
2015,04,26,13,45,561.60
2015,04,26,13,46,537.60
2015,04,26,13,47,527.30
2015,04,26,13,48,526.20
2015,04,26,13,49,506.00
2015,04,26,13,50,504.00
2015,04,26,13,51,506.90
2015,04,26,13,52,511.80
2015,04,26,13,53,525.60
2015,04,26,13,54,557.30
2015,04,26,13,55,595.30
2015,04,26,13,56,622.00
2015,04,26,13,57,676.80
2015,04,26,13,58,724.30
2015,04,26,13,59,654.00
2015,04,26,14,00,610.10
2015,04,26,14,01,611.10
2015,04,26,14,02,681.70
2015,04,26,14,03,751.60
2015,04,26,14,04,814.90
2015,04,26,14,05,779.30
2015,04,26,14,06,773.90
2015,04,26,14,07,773.80
2015,04,26,14,08,767.40
2015,04,26,14,09,766.00
2015,04,26,14,10,684.00
2015,04,26,14,11,619.50
2015,04,26,14,12,645.00
2015,04,26,14,13,618.70
2015,04,26,14,14,599.80
2015,04,26,14,15,587.80
2015,04,26,14,16,631.20
2015,04,26,14,17,660.40
2015,04,26,14,18,676.50
2015,04,26,14,19,720.00
2015,04,26,14,20,723.50
2015,04,26,14,21,726.10
2015,04,26,14,22,784.30
2015,04,26,14,23,806.50
2015,04,26,14,24,809.80
2015,04,26,14,25,729.70
2015,04,26,14,26,718.60
2015,04,26,14,27,777.70
2015,04,26,14,28,792.70
2015,04,26,14,29,859.80
2015,04,26,14,30,795.30
2015,04,26,14,31,796.00
2015,04,26,14,32,719.80
2015,04,26,14,33,645.00
2015,04,26,14,34,652.00
2015,04,26,14,35,581.70
2015,04,26,14,36,563.90
2015,04,26,14,37,522.70
2015,04,26,14,38,546.00
2015,04,26,14,39,525.30
2015,04,26,14,40,524.00
2015,04,26,14,41,571.00
2015,04,26,14,42,617.60
2015,04,26,14,43,620.40
2015,04,26,14,44,566.40
2015,04,26,14,45,530.20
2015,04,26,14,46,540.40
2015,04,26,14,47,602.80
2015,04,26,14,48,575.20
2015,04,26,14,49,520.50
2015,04,26,14,50,470.30
2015,04,26,14,51,431.00
2015,04,26,14,52,434.40
2015,04,26,14,53,452.70
2015,04,26,14,54,455.90
2015,04,26,14,55,415.70
2015,04,26,14,56,363.10
2015,04,26,14,57,327.50
2015,04,26,14,58,316.00
2015,04,26,14,59,319.50
2015,04,26,15,00,324.10
2015,04,26,15,01,326.70
2015,04,26,15,02,327.00
2015,04,26,15,03,327.00
2015,04,26,15,04,326.10
2015,04,26,15,05,321.30
2015,04,26,15,06,315.10
2015,04,26,15,07,306.30
2015,04,26,15,08,297.00
2015,04,26,15,09,287.50
2015,04,26,15,10,274.30
2015,04,26,15,11,256.80
2015,04,26,15,12,236.60
2015,04,26,15,13,222.00
2015,04,26,15,14,211.50
2015,04,26,15,15,205.60
2015,04,26,15,16,203.00
2015,04,26,15,17,206.90
2015,04,26,15,18,218.50
2015,04,26,15,19,230.90
2015,04,26,15,20,239.40
2015,04,26,15,21,243.60
2015,04,26,15,22,247.20
2015,04,26,15,23,250.40
2015,04,26,15,24,253.00
2015,04,26,15,25,260.70
2015,04,26,15,26,269.20
2015,04,26,15,27,273.50
2015,04,26,15,28,277.80
2015,04,26,15,29,281.30
2015,04,26,15,30,283.00
2015,04,26,15,31,281.30
2015,04,26,15,32,274.10
2015,04,26,15,33,269.00
2015,04,26,15,34,252.00
2015,04,26,15,35,232.40
2015,04,26,15,36,216.00
2015,04,26,15,37,206.00
2015,04,26,15,38,202.30
2015,04,26,15,39,204.80
2015,04,26,15,40,209.50
2015,04,26,15,41,217.00
2015,04,26,15,42,220.60
2015,04,26,15,43,222.40
2015,04,26,15,44,227.90
2015,04,26,15,45,236.30
2015,04,26,15,46,249.40
2015,04,26,15,47,261.10
2015,04,26,15,48,275.50
2015,04,26,15,49,289.00
2015,04,26,15,50,296.60
2015,04,26,15,51,300.30
2015,04,26,15,52,299.50
2015,04,26,15,53,297.30
2015,04,26,15,54,297.40
2015,04,26,15,55,306.00
2015,04,26,15,56,317.30
2015,04,26,15,57,326.10
2015,04,26,15,58,334.70
2015,04,26,15,59,332.90
2015,04,26,16,00,315.30
2015,04,26,16,01,292.00
2015,04,26,16,02,273.20
2015,04,26,16,03,257.40
2015,04,26,16,04,250.80
2015,04,26,16,05,250.00
2015,04,26,16,06,249.10
2015,04,26,16,07,246.00
2015,04,26,16,08,242.20
2015,04,26,16,09,237.40
2015,04,26,16,10,232.80
2015,04,26,16,11,229.30
2015,04,26,16,12,229.10
2015,04,26,16,13,230.50
2015,04,26,16,14,232.00
2015,04,26,16,15,232.00
2015,04,26,16,16,230.30
2015,04,26,16,17,225.20
2015,04,26,16,18,217.70
2015,04,26,16,19,211.70
2015,04,26,16,20,207.20
2015,04,26,16,21,207.00
2015,04,26,16,22,206.20
2015,04,26,16,23,200.00
2015,04,26,16,24,188.20
2015,04,26,16,25,179.00
2015,04,26,16,26,174.60
2015,04,26,16,27,174.00
2015,04,26,16,28,175.80
2015,04,26,16,29,178.00
2015,04,26,16,30,178.20
2015,04,26,16,31,179.70
2015,04,26,16,32,181.90
2015,04,26,16,33,185.50
2015,04,26,16,34,190.60
2015,04,26,16,35,194.20
2015,04,26,16,36,195.00
2015,04,26,16,37,199.20
2015,04,26,16,38,208.90
2015,04,26,16,39,219.90
2015,04,26,16,40,225.00
2015,04,26,16,41,224.10
2015,04,26,16,42,220.20
2015,04,26,16,43,213.10
2015,04,26,16,44,207.10
2015,04,26,16,45,202.40
2015,04,26,16,46,200.00
2015,04,26,16,47,200.40
2015,04,26,16,48,203.20
2015,04,26,16,49,206.40
2015,04,26,16,50,208.00
2015,04,26,16,51,210.20
2015,04,26,16,52,213.20
2015,04,26,16,53,219.10
2015,04,26,16,54,224.90
2015,04,26,16,55,233.00
2015,04,26,16,56,239.90
2015,04,26,16,57,243.00
2015,04,26,16,58,242.10
2015,04,26,16,59,239.90
2015,04,26,17,00,237.70
2015,04,26,17,01,231.80
2015,04,26,17,02,219.60
2015,04,26,17,03,205.00
2015,04,26,17,04,193.20
2015,04,26,17,05,182.80
2015,04,26,17,06,174.20
2015,04,26,17,07,169.10
2015,04,26,17,08,165.80
2015,04,26,17,09,167.80
2015,04,26,17,10,173.10
2015,04,26,17,11,180.30
2015,04,26,17,12,188.60